Location: ????????
(60.5616°N, 46.8254°E)
Time: 18:37:49
(UTC+00:00)

CZ-4B R/B - Pass Details

Date: 18 February 2020
Orbit: 393 x 466 km, 97.6° (Epoch: 29 March)

Event Time Altitude Azimuth Distance (km) Brightness Sun altitude
Rises 14:38:24 0° 12° (NNE) 2,373 4.8 -6.7°
Reaches altitude 10° 14:40:30 10° 2° (N) 1,517 3.9 -7.0°
Maximum altitude 14:43:25 32° 297° (WNW) 763 3.2 -7.3°
Drops below altitude 10° 14:46:24 10° 233° (SW) 1,544 5.3 -7.7°
Sets 14:48:33 0° 223° (SW) 2,422 6.1 -7.9°
